Skip Page Navigation
NASA JPL Caltech
NASA Logo - Jet Propulsion Laboratory + View the NASA Portal
+ Near-Earth Object (NEO) Program
Search JPL
JPL Home Earth Solar System Stars & Galaxies Technology
JPL Solar System Dynamics
BODIES ORBITS EPHEMERIDES TOOLS PHYSICAL DATA DISCOVERY FAQ SITE MAP
JPL Small-Body Database Browser
Search: [ help ]  
11529 (1992 BJ1)
Classification: Main-belt Asteroid          SPK-ID: 2011529
Ephemeris | Orbit Diagram | Orbital Elements | Physical Parameters | Discovery Circumstances | Close-Approach Data ]

[ show orbit diagram ]
Orbital Elements at Epoch 2457600.5 (2016-Jul-31.0) TDB
Reference: JPL 20 (heliocentric ecliptic J2000)
 Element Value Uncertainty (1-sigma)   Units 
e .2493061113311633 5.7695e-08  
a 2.680238732257687 1.8374e-08 au
q 2.012038836479357 1.5181e-07 au
i 3.952724672986935 6.1208e-06 deg
node 78.16196247008561 9.2866e-05 deg
peri 1.88671198454243 9.3684e-05 deg
M 239.5023955660612 1.5569e-05 deg
tp 2458136.956556348849
(2018-Jan-18.45655635)
7.2489e-05 JED
period 1602.723649095146
4.39
1.6481e-05
4.512e-08
d
yr
n .2246176377338951 2.3098e-09 deg/d
Q 3.348438628036018 2.2955e-08 au
  Orbit Determination Parameters
   # obs. used (total)      830  
   data-arc span      11871 days (32.50 yr)  
   first obs. used      1982-12-23  
   last obs. used      2015-06-24  
   planetary ephem.      DE431  
   SB-pert. ephem.      SB431-BIG16  
   condition code      0  
   fit RMS      .53578  
   data source      ORB  
   producer      Otto Matic  
   solution date      2016-Feb-25 18:45:43  

Additional Information
 Earth MOID = 1.02609 au 
 Jupiter MOID = 1.92329 au 
 T_jup = 3.328 
[ show covariance matrix ]

Ephemeris | Orbit Diagram | Orbital Elements | Physical Parameters | Discovery Circumstances | Close-Approach Data ]

Physical Parameter Table
Parameter Symbol Value Units Sigma Reference Notes
absolute magnitude H 14.0 mag n/a MPO309242  

11529 (1992 BJ1)          Discovered 1992-Jan-28 by Ueda, S., Kaneda, H. at Kushiro
Reference: 19990928/Numbers.arcLast Updated: 2004-04-19

[ show close-approach data ]
Alternate Designations
 1992 BJ1 = 1982 YX3 = 1995 UX8 
Ephemeris | Orbit Diagram | Orbital Elements | Physical Parameters | Discovery Circumstances | Close-Approach Data ]
ABOUT SSD CREDITS/AWARDS PRIVACY/COPYRIGHT GLOSSARY LINKS
FirstGov 2016-Apr-29 15:55 UT
(server date/time)  
NASA Home Page
Site Manager:   Ryan S. Park
Webmaster  Alan B. Chamberlin